AO-07 1 07530U 74089B 23151.59949392 -.00000033 00000-0 80098-4 0 9991 2 07530 101.9463 138.1650 0012635 95.0212 16.5015 12.53664532221090 UO-11 1 14781U 84021B 23151.48047021 .00001350 00000-0 16489-3 0 9994 2 14781 97.6565 129.0599 0006567 254.3965 105.6526 14.84853891 91662 AO-16 1 20439U 90005D 23151.56510505 .00000188 00000-0 85424-4 0 9995 2 20439 98.8825 141.3704 0009673 250.5702 224.4788 14.33102192742527 LO-19 1 20442U 90005G 23151.48615158 .00000173 00000-0 79767-4 0 9997 2 20442 98.8428 127.6460 0010870 223.8872 136.1449 14.33256420742952 HUBBLE 1 20580U 90037B 23151.84638771 .00003711 00000-0 19364-3 0 9998 2 20580 28.4707 16.7234 0002290 196.8712 267.9804 15.13148595619245 MET-2/21 1 22782U 93055A 23151.35420137 .00000014 00000-0 -12656-5 0 9991 2 22782 82.5483 98.1258 0023719 91.0033 20.9836 13.83886150502125 AO-27 1 22825U 93061C 23151.55881222 .00000123 00000-0 65178-4 0 9990 2 22825 98.8419 194.1802 0009510 114.0302 246.1876 14.30303446547919 IO-26 1 22826U 93061D 23151.56643496 .00000153 00000-0 76119-4 0 9991 2 22826 98.8364 194.0516 0010124 101.6250 258.6068 14.30664043548181 FO-29 1 24278U 96046B 23151.55406771 .00000000 00000-0 33113-4 0 9990 2 24278 98.5275 132.3776 0351277 100.0041 264.0925 13.53145229322933 NOAA-15 1 25338U 98030A 23151.74177465 .00000249 00000-0 12164-3 0 9996 2 25338 98.6064 181.0792 0010381 9.0079 351.1286 14.26324139302918 GO-32 1 25397U 98043D 23151.42577342 .00000080 00000-0 54816-4 0 9992 2 25397 98.8678 108.7381 0001609 140.0635 220.0662 14.23874169292946 ISS 1 25544U 98067A 23151.87657919 .00017052 00000-0 30232-3 0 9992 2 25544 51.6404 49.3974 0005357 37.5897 322.5466 15.50345899399263 NO-44 1 26931U 01043C 23151.56546941 .00000125 00000-0 78951-4 0 9993 2 26931 67.0512 239.7426 0007899 274.9501 85.0699 14.30918514131208 SO-50 1 27607U 02058C 23151.78317316 .00001305 00000-0 19627-3 0 9992 2 27607 64.5547 315.2192 0070549 227.9540 131.5547 14.77261099100016 CO-55 1 27844U 03031E 23151.58271786 .00000362 00000-0 18061-3 0 9998 2 27844 98.6776 159.0831 0010068 166.6959 193.4486 14.22774506 33373 CO-57 1 27848U 03031J 23151.51774881 .00000309 00000-0 15871-3 0 9996 2 27848 98.6812 159.4409 0009630 181.5551 178.5598 14.22285825 33133 RS-22 1 27939U 03042A 23151.78557285 .00001228 00000-0 22108-3 0 9997 2 27939 98.2412 298.6257 0012499 182.7168 308.0019 14.68350455 52138 NOAA-18 1 28654U 05018A 23151.77921523 .00000235 00000-0 15005-3 0 9991 2 28654 98.9095 226.2486 0015257 69.0238 291.2565 14.12943969929250 CO-58 1 28895U 05043F 23151.34530657 .00001488 00000-0 28224-3 0 9991 2 28895 98.1514 283.5365 0017455 123.5623 236.7250 14.65611805938347 CO-65 1 32785U 08021C 23151.43319972 .00002943 00000-0 29411-3 0 9994 2 32785 97.7044 117.7495 0012925 152.1755 208.0158 14.92167825818328 AAUSAT2 1 32788U 08021F 23151.44826625 .00008809 00000-0 64821-3 0 9997 2 32788 97.5580 131.2462 0009880 59.8648 300.3556 15.03568040820596 DO-64 1 32789U 08021G 23151.55226633 .00053071 00000-0 15600-2 0 9994 2 32789 97.3036 173.1723 0008614 161.4375 198.7184 15.34893949824837 CO-66 1 32791U 08021J 23151.35700671 .00004490 00000-0 39920-3 0 9997 2 32791 97.6550 122.9502 0013957 105.3714 254.9051 14.96523469819141 RS-30 1 32953U 08025A 23151.78618948 .00000046 00000-0 26205-3 0 9998 2 32953 82.5019 327.2992 0019027 218.2588 141.7143 12.43124403681613 PRISM 1 33493U 09002B 23151.58100427 .00010544 00000-0 72231-3 0 9994 2 33493 98.2459 164.9400 0017983 102.3440 257.9799 15.06140012781258 NOAA-19 1 33591U 09005A 23151.75074797 .00000213 00000-0 13963-3 0 9994 2 33591 99.1003 197.4143 0012816 290.4610 69.5185 14.12761574737621 SRMSAT 1 37841U 11058D 23151.60167101 .00000445 00000-0 99264-4 0 9999 2 37841 19.9731 310.3036 0011747 209.4156 222.6101 14.10896672600462 HRBE 1 37855U 11061F 23151.42008391 .00026805 00000-0 85609-3 0 9998 2 37855 101.7052 103.7174 0122097 91.6292 269.8920 15.25461133634009 RS-40 1 38735U 12041C 23151.48699492 .00000014 00000-0 29927-4 0 9995 2 38735 82.4788 48.5041 0017257 336.9302 23.1001 12.42593971491649 ZACUBE-1 1 39417U 13066B 23151.45322101 .00003752 00000-0 43596-3 0 9997 2 39417 97.6839 113.7078 0054477 344.5017 15.4528 14.84878499514711 Delfi-N3xt 1 39428U 13066N 23151.32307386 .00002896 00000-0 42287-3 0 9997 2 39428 97.8337 76.7585 0109252 243.2666 115.7328 14.72507598509651 GOMX-1 1 39430U 13066Q 23151.69140436 .00002549 00000-0 44712-3 0 9991 2 39430 97.7823 43.7917 0146492 26.1495 334.7011 14.61759221507123 LO-74 1 39440U 13066AA 23151.39497544 .00003076 00000-0 39987-3 0 9998 2 39440 97.7715 100.6974 0077331 82.0275 278.9704 14.79299863511675 AO-73 1 39444U 13066AE 23151.43505870 .00004439 00000-0 49488-3 0 9990 2 39444 97.6700 116.2221 0052239 329.9543 29.8679 14.86557350513156 SPROUT 1 39770U 14029E 23151.63821385 .00019497 00000-0 15028-2 0 9998 2 39770 97.9818 278.3901 0006162 358.5367 1.5838 15.01644922489675 DTUSAT-2 1 40030U 14033W 23151.32555763 .00004228 00000-0 41261-3 0 9999 2 40030 97.9673 91.6498 0010634 358.0266 2.0909 14.92942147485483 EO-80 1 40032U 14033Y 23151.36839489 .00004008 00000-0 39143-3 0 9997 2 40032 97.9666 91.7106 0010581 357.7956 2.3215 14.92942860485460 HODOYOSHI-1 1 40299U 14070B 23151.72916393 .00010744 00000-0 33503-3 0 9991 2 40299 97.1952 214.8239 0009657 344.8539 15.2413 15.33360518476290 FIREBIRD FU3 1 40377U 15003B 23151.77262581 .00148405 00000-0 12077-2 0 9991 2 40377 99.0745 105.9390 0038136 258.5335 101.1638 15.69224043462071 FIREBIRD FU4 1 40378U 15003C 23151.39404480 .00139873 00000-0 11471-2 0 9992 2 40378 99.0766 105.7727 0038410 259.5103 100.1824 15.69048343462013 GRIFEX 1 40379U 15003D 23151.34727474 .00037652 00000-0 84247-3 0 9993 2 40379 99.0780 84.0564 0081304 330.6002 29.0677 15.39888691460789 XW-2C 1 40906U 15049H 23151.76576002 .00011363 00000-0 44296-3 0 9995 2 40906 97.4934 158.8534 0010785 210.3107 149.7508 15.26065065425894 XW-2D 1 40907U 15049J 23151.73956717 .00013164 00000-0 48469-3 0 9995 2 40907 97.4914 159.3156 0010100 201.6190 158.4624 15.27928239425972 LILACSAT-2 1 40908U 15049K 23151.76169800 .00005476 00000-0 26041-3 0 9997 2 40908 97.5243 154.8673 0012326 243.4403 116.5569 15.19544108425306 XW-2E 1 40909U 15049L 23151.72571267 .00027827 00000-0 75635-3 0 9995 2 40909 97.4528 165.3807 0009857 165.8491 194.3032 15.37478559426617 XW-2F 1 40910U 15049M 23151.71638334 .00027505 00000-0 76299-3 0 9995 2 40910 97.4620 164.6049 0010521 169.2955 190.8514 15.36840022426359 XW-2B 1 40911U 15049N 23151.73319084 .00012848 00000-0 47628-3 0 9994 2 40911 97.4893 159.7565 0010025 203.4190 156.6594 15.27709902425854 DCBB 1 40912U 15049P 23151.73730680 .00035827 00000-0 81867-3 0 9999 2 40912 97.4173 169.2084 0011299 134.8217 225.3951 15.42698688427071 IO-86 1 40931U 15052B 23151.55009665 .00001097 00000-0 62525-4 0 9999 2 40931 5.9984 205.2696 0012576 58.1371 301.9979 14.77223057414892 ATHENOXAT-1 1 41168U 15077C 23151.77414454 .00136250 00000-0 18860-2 0 9990 2 41168 14.9882 350.0170 0001909 134.3329 225.7155 15.55186723413754 ChubuSat-2 1 41338U 16012B 23151.61564479 .00003493 00000-0 24107-3 0 9999 2 41338 31.0037 323.7466 0012445 12.8610 347.2342 15.03881175399881 ChubuSat-3 1 41339U 16012C 23151.74160456 .00003201 00000-0 22123-3 0 9994 2 41339 31.0101 320.0246 0012325 21.3944 338.7205 15.03748790399903 Horyu-4 1 41340U 16012D 23151.70662436 .00006607 00000-0 41621-3 0 9994 2 41340 31.0043 289.3144 0011767 76.8470 283.3480 15.07690372400237 e-st@r-II 1 41459U 16025D 23151.60032628 .00031963 00000-0 94409-3 0 9997 2 41459 98.1876 351.2319 0109644 156.5765 204.0523 15.29051719390364 AAUSAT4 1 41460U 16025E 23151.53365741 .00103605 00000-0 14905-2 0 9991 2 41460 98.1625 3.2079 0063446 113.6713 247.1214 15.53330645391182 LO-87 1 41557U 16033B 23151.77834511 .00061676 00000-0 83196-3 0 9999 2 41557 97.3875 259.0399 0007901 192.1837 167.9228 15.57572302391070 NuSat2 1 41558U 16033C 23151.73535849 .00073026 00000-0 86423-3 0 9996 2 41558 97.4153 266.9476 0007731 187.3010 172.8136 15.60998857391405 Lapan A3 1 41603U 16040E 23151.75865136 .00002443 00000-0 10849-3 0 9996 2 41603 97.1668 178.0821 0013222 22.6799 337.5020 15.22374086384996 Pratham 1 41783U 16059A 23151.55062688 .00000732 00000-0 14744-3 0 9991 2 41783 97.8695 183.4049 0033827 151.1078 209.2007 14.63931297356542 TY-1 1 41844U 16066D 23151.82412592 .00053095 00000-0 87983-3 0 9995 2 41844 97.3678 170.6921 0011358 116.4248 243.8171 15.51922260365141 CAS-2T 1 41847U 16066G 23151.21122401 .00000765 00000-0 12442-3 0 9992 2 41847 98.5045 219.8432 0358815 248.3109 107.9520 14.39641920344366 EO-88 1 42017U 17008BX 23151.14222928 .00173158 00000-0 12062-2 0 9990 2 42017 97.2105 221.7904 0002847 176.8194 183.3090 15.73840610350784 CAS-4B 1 42759U 17034B 23151.59964907 .00006170 00000-0 31612-3 0 9993 2 42759 43.0146 207.8823 0011013 348.1355 11.9232 15.17170460329118 CAS-4A 1 42761U 17034D 23151.61581215 .00006687 00000-0 34150-3 0 9999 2 42761 43.0138 206.3241 0011691 350.4466 9.6158 15.17176392329123 NIUSat 1 42766U 17036B 23151.54995704 .00023761 00000-0 62472-3 0 9990 2 42766 97.1579 183.2432 0011824 153.8673 206.3172 15.38510944330059 Aalto 1 1 42775U 17036L 23151.57999742 .00017033 00000-0 50356-3 0 9992 2 42775 97.1532 182.1106 0011236 155.6886 204.4890 15.34927882329971 URSA MAIOR 1 42776U 17036M 23151.33764192 .00019055 00000-0 53150-3 0 9997 2 42776 97.1547 183.1637 0011011 152.8811 207.3011 15.36731431330004 Max Valier Sat 1 42778U 17036P 23151.64591097 .00022687 00000-0 60515-3 0 9993 2 42778 97.1568 186.8879 0009969 150.1580 210.0236 15.38095956330186 Pegasus 1 42784U 17036V 23151.65050802 .00040949 00000-0 83799-3 0 9995 2 42784 97.1486 189.2824 0008959 145.6191 214.5640 15.45960096330423 NUDATSat 1 42787U 17036Y 23150.37527266 .08094306 23455-5 11953-2 0 9999 2 42787 97.1162 199.3051 0013837 253.4226 106.5552 16.34246787330794 SUCHAI 1 1 42788U 17036Z 23151.64346811 .00072979 00000-0 10785-2 0 9998 2 42788 97.1460 192.8161 0008244 143.6743 216.5073 15.55048642330721 SKCUBE 1 42789U 17036AA 23151.59804418 .00052365 00000-0 92374-3 0 9997 2 42789 97.1470 191.3077 0008523 142.2831 217.9020 15.50192377330543 VZLUSAT 1 1 42790U 17036AB 23151.36013038 .01231001 87198-3 18535-2 0 9993 2 42790 97.1309 199.7768 0009670 224.8822 135.1679 16.04777416331068 VENTA 1 1 42791U 17036AC 23151.08891997 .00036055 00000-0 73307-3 0 9995 2 42791 97.1500 189.9060 0008459 143.9218 216.2604 15.46181063330398 Robusta 1B 1 42792U 17036AD 23151.59586387 .00064768 00000-0 10206-2 0 9996 2 42792 97.1439 192.4796 0007771 139.9820 220.2007 15.53315399330633 D-SAT 1 42794U 17036AF 23151.54466693 .00005487 00000-0 43599-3 0 9995 2 42794 97.4644 144.3794 0116766 358.8687 1.2253 14.95572501323444 TechnoSat 1 42829U 17042E 23151.50772845 .00002260 00000-0 21916-3 0 9991 2 42829 97.3902 349.9494 0011870 283.3384 76.6513 14.93545418320004 AO-91 1 43017U 17073E 23151.48670893 .00006380 00000-0 44580-3 0 9991 2 43017 97.6335 36.4877 0235497 124.2168 238.1609 14.85843813298709 PICSAT 1 43132U 18004X 23151.46460415 .00070460 00000-0 10131-2 0 9993 2 43132 97.3298 234.2359 0006098 179.8413 180.2844 15.55825161299946 AO-92 1 43137U 18004AC 23151.75321843 .00034374 00000-0 72957-3 0 9990 2 43137 97.3293 230.7803 0006359 184.9943 175.1244 15.44947224299766 TianYi 2 1 43155U 18008A 23151.71946947 .00016677 00000-0 66831-3 0 9998 2 43155 97.2999 204.6398 0012673 15.3807 344.7814 15.25024751296145 Zhou Enlai 1 43156U 18008B 23151.73530684 .00018574 00000-0 73314-3 0 9990 2 43156 97.3046 204.7459 0010299 17.8315 342.3282 15.25535436296074 TianYi 6 1 43158U 18008D 23151.70461543 .00014645 00000-0 63289-3 0 9991 2 43158 97.3049 201.7304 0010526 21.7155 338.4526 15.22526306295916 S-Net D 1 43186U 18014G 23151.71036286 .00002276 00000-0 18569-3 0 9990 2 43186 97.6355 55.8254 0014081 212.1299 147.9067 15.00368328291088 S-Net B 1 43187U 18014H 23151.31120933 .00002236 00000-0 18254-3 0 9997 2 43187 97.6345 55.3640 0014237 211.9302 148.1060 15.00355438291025 S-Net A 1 43188U 18014J 23151.71151499 .00002319 00000-0 18909-3 0 9992 2 43188 97.6350 55.8434 0014278 210.7328 149.3061 15.00360382291082 S-Net C 1 43189U 18014K 23151.71358324 .00002390 00000-0 19482-3 0 9995 2 43189 97.6331 55.7376 0014629 207.4190 152.6263 15.00343215289631 Shaonian Xing 1 43199U 18015H 23151.74000852 .00154915 00000-0 11693-2 0 9996 2 43199 97.5426 310.0879 0009093 224.2239 135.8297 15.71948772297233 CubeBel-1 1 43666U 18083E 23151.73785986 .00029445 00000-0 81152-3 0 9994 2 43666 97.3815 183.2555 0010832 169.0633 191.0849 15.37024474254674 Changshagaoxin 1 43669U 18083H 23151.73622481 .00023227 00000-0 71176-3 0 9994 2 43669 97.3804 177.9711 0008481 166.1773 193.9703 15.33759796254420 Ten-Koh 1 43677U 18084G 23151.39312653 .00002608 00000-0 25654-3 0 9993 2 43677 98.0105 290.9772 0014824 199.2463 160.8198 14.92943734249555 PO-101 1 43678U 18084H 23151.70613492 .00001155 00000-0 11580-3 0 9993 2 43678 98.0207 295.3463 0008871 209.0717 151.0009 14.93375163249809 QO-100 1 43700U 18090A 23151.52155794 .00000164 00000-0 00000-0 0 9993 2 43700 0.0135 290.8119 0001733 170.2006 1.3322 1.00274553 16527 Reaktor Hello World 1 43743U 18096AA 23151.22987799 .00053580 00000-0 75683-3 0 9993 2 43743 97.3178 237.7957 0009996 232.2358 127.7992 15.56339893251531 MinXSS-2 1 43758U 18099A 23151.39784425 .00006527 00000-0 50931-3 0 9999 2 43758 97.5991 215.8436 0016941 178.1552 181.9738 15.01369559245224 AO-95 1 43770U 18099N 23151.41222541 .00003658 00000-0 30082-3 0 9999 2 43770 97.5748 213.4057 0012033 184.3254 175.7867 14.99683850245095 RANGE-B 1 43772U 18099Q 23151.16956247 .00005900 00000-0 46193-3 0 9992 2 43772 97.5803 215.8779 0009229 147.3534 212.8263 15.01358104245110 RANGE-A 1 43773U 18099R 23151.10681208 .00003288 00000-0 28016-3 0 9990 2 43773 97.5640 211.2396 0013483 168.6766 191.4763 14.98362676245004 MOVE-II 1 43780U 18099Y 23151.39996185 .00009315 00000-0 68799-3 0 9991 2 43780 97.5709 215.7835 0009024 204.2137 155.8666 15.03419428245214 SNUSat 2 1 43782U 18099AA 23151.10932675 .00003982 00000-0 32797-3 0 9999 2 43782 97.5724 213.6207 0013540 166.3009 193.8584 14.99567376245072 SnugLite 1 43784U 18099AC 23151.13324364 .00004871 00000-0 39393-3 0 9991 2 43784 97.5762 213.3007 0011095 169.0313 191.1155 15.00187577245116 ITASat 1 1 43786U 18099AE 23151.41092694 .00003168 00000-0 26317-3 0 9992 2 43786 97.5791 214.4366 0013203 171.5716 188.5732 14.99385583245135 EAGLET 1 1 43790U 18099AJ 23151.18087578 .00003201 00000-0 26866-3 0 9993 2 43790 97.5746 214.6899 0013492 176.1063 184.0268 14.98974981244835 ESEO 1 43792U 18099AL 23151.39002966 .00002398 00000-0 20987-3 0 9990 2 43792 97.5707 213.4159 0013045 173.2069 186.9333 14.97573817244878 CSIM 1 43793U 18099AM 23151.43370496 .00008073 00000-0 58860-3 0 9999 2 43793 97.5783 217.1176 0016729 176.0900 184.0460 15.03872940245069 Astrocast 0.1 1 43798U 18099AS 23151.42463569 .00007291 00000-0 55464-3 0 9995 2 43798 97.5866 216.4800 0013778 152.3147 207.8815 15.02338682245251 JO-97 1 43803U 18099AX 23151.11318709 .00005077 00000-0 40531-3 0 9992 2 43803 97.5696 214.1215 0013428 148.0821 212.1219 15.00641479245130 Suomi 100 1 43804U 18099AY 23151.17245055 .00004680 00000-0 37678-3 0 9999 2 43804 97.5676 213.9986 0017632 165.6662 194.5066 15.00308312245140 Al Farabi 2 1 43805U 18099AZ 23151.73372359 .00007581 00000-0 58237-3 0 9997 2 43805 97.5577 215.5482 0012346 155.8180 204.3627 15.01964250245281 CHOMPTT 1 43855U 18104G 23151.53729990 .00020952 00000-0 52832-3 0 9996 2 43855 85.0303 177.4765 0012970 36.2495 323.9633 15.39648215248019 ISAT 1 43879U 18111D 23151.31050662 .00004604 00000-0 35347-3 0 9997 2 43879 97.6460 56.0090 0013046 210.6653 149.3811 15.02197927241807 UWE-4 1 43880U 18111E 23151.23671632 .00004413 00000-0 34048-3 0 9991 2 43880 97.6324 56.6870 0016709 227.9815 131.9988 15.01991616241820 Sparrow 1 43881U 18111F 23151.52165498 .00005456 00000-0 41427-3 0 9999 2 43881 97.6530 57.5382 0008372 259.5455 100.4827 15.02573233241887 Lume 1 1 43908U 18111AJ 23151.57533639 .00031034 00000-0 64652-3 0 9996 2 43908 97.1431 35.0896 0010453 255.4587 104.5503 15.45477605246825 FO-99 1 43937U 19003F 23151.53076237 .00049962 00000-0 85071-3 0 9998 2 43937 97.0875 178.9631 0010141 345.7548 14.3417 15.51187172243469 AstroCast 0.2 1 44083U 19018F 23151.69571563 .00046340 00000-0 86212-3 0 9991 2 44083 97.2672 211.3558 0002620 295.6707 64.4273 15.48736512231863 AISTechSat 3 1 44103U 19018AB 23151.71993431 .00024171 00000-0 60096-3 0 9999 2 44103 97.2546 210.3005 0007338 340.2091 19.8869 15.40265421231971 AISat 1 1 44104U 19018AC 23151.24964698 .00016442 00000-0 32642-3 0 9999 2 44104 97.3731 242.2930 0039717 320.8240 39.0135 15.46197432233105 Prox-1 1 44339U 19036A 23151.41147929 .00005128 00000-0 10193-2 0 9993 2 44339 23.9994 151.1748 0010415 82.0062 278.1612 14.59238674209149 Move-IIb 1 44398U 19038N 23151.46049393 .00042260 00000-0 10922-2 0 9999 2 44398 97.6588 133.4998 0012937 5.3098 354.8281 15.38909204216097 SONATE 1 44400U 19038Q 23151.45705813 .00009482 00000-0 42855-3 0 9998 2 44400 97.6824 128.7636 0021122 16.3497 343.8415 15.20969315215693 BeeSat 9 1 44412U 19038AC 23151.46385788 .00022566 00000-0 79453-3 0 9999 2 44412 97.6731 131.5630 0015661 14.8265 345.3430 15.29210752215604 JAISAT-1 1 44419U 19038F 23151.48250284 .00023109 00000-0 80575-3 0 9991 2 44419 97.6726 132.6577 0014740 11.6493 348.5085 15.29538093215985 Taurus 1 1 44530U 19059C 23151.58355795 .00004141 00000-0 10802-2 0 9992 2 44530 98.5535 259.1307 0014452 141.4144 218.8085 14.49961451196232 Duchifat 3 1 44854U 19089C 23151.50032972 .00006221 00000-0 42331-3 0 9999 2 44854 36.9608 190.9961 0009408 187.0881 172.9731 15.06002147190329 OPS-SAT 1 44878U 19092F 23151.49533376 .00024365 00000-0 74562-3 0 9991 2 44878 97.4755 340.0393 0009569 187.1908 172.9198 15.33786339191236 TO-108 1 44881U 19093C 23151.76072331 .00000949 00000-0 12457-3 0 9992 2 44881 97.8616 230.4914 0015922 128.6677 231.5964 14.82500739186366 FloripaSat 1 1 44885U 19093G 23151.78078645 .00003949 00000-0 46057-3 0 9998 2 44885 97.8682 233.1255 0014974 131.2077 229.0432 14.85687979186515 RS-44 1 44909U 19096E 23151.56953350 .00000035 00000-0 98465-4 0 9993 2 44909 82.5225 358.9907 0216628 225.6463 132.6711 12.79720833160039 BY70-2 1 45857U 20042B 23151.75894343 .00017856 00000-0 18581-2 0 9994 2 45857 97.9255 231.6081 0009419 71.8129 288.4113 14.89870861157091 UPMSat 2 1 46276U 20061E 23151.73005494 .00008405 00000-0 35821-3 0 9997 2 46276 97.3476 219.6563 0002391 71.8100 288.3397 15.23193309151785 AmicalSat 1 46287U 20061R 23151.42006955 .00010672 00000-0 50296-3 0 9990 2 46287 97.4009 218.2483 0003528 132.5802 227.5731 15.19673188151165 SALSAT 1 46495U 20068K 23151.59479299 .00004274 00000-0 28444-3 0 9992 2 46495 97.7693 99.4248 0015801 170.1092 190.0450 15.07590316146571 CAPE 3 1 47309U 21002A 23151.62737053 .00029681 00000-0 73634-3 0 9995 2 47309 60.6756 123.8436 0014776 175.9347 184.1871 15.40138307131730 AO-109 1 47311U 21002C 23151.47683740 .00023737 00000-0 63045-3 0 9995 2 47311 60.6792 122.7390 0014782 166.5731 193.5760 15.38155620131713 MiTEE 1 1 47314U 21002F 23151.41225370 .00558094 12849-3 18559-2 0 9998 2 47314 60.6596 87.6131 0002547 178.2357 181.8771 15.89924253132322 ExoCube 2 1 47319U 21002L 23151.40327603 .00020629 00000-0 56272-3 0 9990 2 47319 60.6775 125.1081 0015193 170.9297 189.2074 15.37400134131632 UVSQ-SAT 1 47438U 21006AB 23151.09272998 .00013154 00000-0 54636-3 0 9994 2 47438 97.3859 208.4507 0011456 137.9192 222.2927 15.23887327130044 YUSAT 1 1 47439U 21006AC 23151.40766210 .00017572 00000-0 67926-3 0 9999 2 47439 97.3864 209.4542 0010937 135.7471 224.4644 15.26238187130137 SOMP 2b 1 47445U 21006AJ 23151.73006239 .00013771 00000-0 58383-3 0 9994 2 47445 97.3824 208.3557 0011206 140.2601 219.9459 15.23186501130110 IDEASSat 1 47458U 21006AX 23151.70517330 .00013390 00000-0 57738-3 0 9994 2 47458 97.3921 209.1044 0010500 138.9040 221.2989 15.22624206130098 CubeSX-Sirius-HSE 1 47951U 21022V 23151.74372792 .00008910 00000-0 50414-3 0 9991 2 47951 97.4995 49.3689 0020003 36.7463 323.5135 15.13114497120544 CubeSX-HSE 1 47952U 21022W 23151.71765167 .00009344 00000-0 52750-3 0 9998 2 47952 97.4997 49.3890 0019946 36.5302 323.7285 15.13181628120543 KSU-Cubesat 1 47954U 21022Y 23151.71269710 .00010108 00000-0 55754-3 0 9990 2 47954 97.5007 49.7375 0019385 35.7297 324.5228 15.14001567120282 GRBAlpha 1 47959U 21022AD 23151.70516614 .00008772 00000-0 49443-3 0 9994 2 47959 97.5000 49.4565 0019850 37.1224 323.1376 15.13258697119364 Orbicraft-Zorkiy 1 47960U 21022AE 23151.73593448 .00010441 00000-0 57705-3 0 9995 2 47960 97.5026 49.8903 0019324 35.6677 324.5842 15.13920697120074 STECCO 1 47962U 21022AG 23151.73793764 .00017998 00000-0 84587-3 0 9992 2 47962 97.4998 52.1300 0013787 29.0471 331.1528 15.19570533119548 DO-111 1 47963U 21022AH 23151.24164443 .00183265 00000-0 26537-2 0 9996 2 47963 97.4975 58.9755 0006459 56.4235 303.7635 15.55223418119958 MO-110 1 47964U 21022AJ 23151.73038780 .00019216 00000-0 88173-3 0 9994 2 47964 97.5012 52.6969 0015636 23.7504 336.4450 15.20358939119578 FEES 1 48082U 21022AL 23151.28988211 .00031278 00000-0 12050-2 0 9991 2 48082 97.5003 53.3532 0011047 24.4326 335.7434 15.26230683119289 TUBIN 1 48900U 21059X 23151.68979516 .00007231 00000-0 34690-3 0 9999 2 48900 97.5972 285.1898 0008457 347.0185 13.0830 15.19165709106674 IT-SPINS 1 49017U 21013G 23151.43371301 .00024255 00000-0 57785-3 0 9995 2 49017 51.5901 160.8047 0005675 288.2077 71.8289 15.41437348107123 LEDSAT 1 49069U 21073D 23151.72993804 .00008576 00000-0 47399-3 0 9996 2 49069 97.4835 222.8854 0024758 173.9087 186.2450 15.13871147 98414 CUTE 1 49263U 21088D 23151.70447358 .00008039 00000-0 51993-3 0 9993 2 49263 97.5455 217.7909 0016334 323.0336 36.9766 15.08344869 91806 TeikyoSat 4 1 49396U 21102B 23151.67879282 .00001790 00000-0 14001-3 0 9994 2 49396 97.5172 204.1769 0016539 136.2183 224.0356 15.02185509 85293 Z-Sat 1 49399U 21102E 23151.72708948 .00002624 00000-0 18938-3 0 9993 2 49399 97.4856 205.3300 0023711 123.5288 236.8208 15.04730266 85412 KOSEN 1 1 49402U 21102H 23151.68741133 .00004590 00000-0 31345-3 0 9997 2 49402 97.4791 205.7728 0022567 113.4844 246.8759 15.06455165 85479 HO-113 1 50466U 21131B 23151.75901576 .00000558 00000-0 19546-3 0 9997 2 50466 98.5516 233.3549 0004450 172.9566 187.1685 14.38901184 74999 Tevel-3 1 50988U 22002E 23151.70724693 .00017603 00000-0 71785-3 0 9994 2 50988 97.4344 218.7917 0006087 290.3526 69.7057 15.24486135 76259 Tevel-8 1 50989U 22002F 23151.72528516 .00018308 00000-0 74785-3 0 9999 2 50989 97.4360 218.8671 0006146 289.0630 70.9941 15.24421142 76256 Tevel-5 1 50998U 22002Q 23151.72622094 .00018703 00000-0 74433-3 0 9994 2 50998 97.4339 219.1748 0007319 283.3628 76.6793 15.25285581 76285 Tevel-6 1 50999U 22002R 23151.72474423 .00018766 00000-0 74680-3 0 9999 2 50999 97.4336 219.1685 0007331 283.1553 76.8867 15.25285558 76280 Tevel-1 1 51013U 22002AF 23151.71655690 .00017887 00000-0 73035-3 0 9999 2 51013 97.4340 218.7463 0006048 289.5298 70.5286 15.24441800 76258 Grizu-263a 1 51025U 22002AT 23151.43505329 .00071259 00000-0 16164-2 0 9996 2 51025 97.4488 223.5877 0006911 259.5330 100.5138 15.42789088 76477 NO-116 1 51031U 22002AZ 23151.72136646 .00032200 00000-0 10562-2 0 9996 2 51031 97.4465 221.5464 0007984 279.3529 80.6809 15.31520268 76384 IRIS-A 1 51044U 22002BN 23151.73905894 .00009162 00000-0 43951-3 0 9990 2 51044 97.4354 217.4495 0006696 300.6266 59.4308 15.19090979 76169 Tevel-7 1 51062U 22002CG 23151.72646744 .00017918 00000-0 73171-3 0 9990 2 51062 97.4356 218.8418 0006131 288.4172 71.6398 15.24436759 76255 Tevel-4 1 51063U 22002CH 23151.73199978 .00018273 00000-0 74717-3 0 9996 2 51063 97.4356 218.8322 0006149 288.3035 71.7534 15.24388021 76257 Tevel-2 1 51069U 22002CP 23151.70909559 .00017821 00000-0 72668-3 0 9994 2 51069 97.4342 218.7657 0006064 289.9227 70.1357 15.24487255 76259 DELFI-PQ 1 51074U 22002CU 23151.38063498 .00036272 00000-0 10760-2 0 9992 2 51074 97.4601 223.4700 0007764 310.2847 49.7717 15.34703167 76424 SO-115 1 51080U 22002DA 23151.42615735 .00019502 00000-0 71413-3 0 9991 2 51080 97.4619 222.1262 0008976 321.8332 38.2271 15.28029386 76337 SO-114 1 51081U 22002DB 23151.15390778 .00020176 00000-0 73534-3 0 9994 2 51081 97.4608 221.8238 0009230 322.2334 37.8257 15.28175962 76292 OreSat0 1 52017U 22026K 23151.76545503 .00016196 00000-0 65919-3 0 9990 2 52017 97.5086 154.1153 0024318 138.0434 222.2672 15.24312456 67046 Planetum 1 1 52738U 22057G 23151.56040159 .00012473 00000-0 58362-3 0 9997 2 52738 97.5361 267.5343 0007610 55.8062 304.3893 15.19868363 56133 Foresail-1 1 52766U 22057AL 23151.79341501 .00008672 00000-0 41495-3 0 9993 2 52766 97.5481 268.6552 0012499 33.5357 326.6666 15.19150837 56193 SNUGLITE 2 1 52899U 22065F 23151.35151731 .00001039 00000-0 22955-3 0 9995 2 52899 98.0670 296.6641 0006668 268.4822 91.5614 14.59265465 48406 CTIM 1 52950U 22074G 23151.28761568 .00039795 00000-0 92891-3 0 9996 2 52950 44.9979 93.6496 0011743 121.9813 238.2218 15.41541866 50993 IO-117 1 53106U 22080B 23149.84195747 -.00000003 00000-0 00000 0 0 9994 2 53106 70.1621 326.0976 0008371 189.0727 170.9782 6.42557054 20576 AstroBioCubeSat 1 53107U 22080C 23025.30817895 -.00000003 00000-0 00000-0 0 9995 2 53107 70.1710 9.4734 0013545 210.3158 149.6718 6.42110537 12478 SelfieSat 1 53951U 22057BC 23151.28143739 .00015460 00000-0 69043-3 0 9999 2 53951 97.5409 267.8402 0009158 47.5826 312.6183 15.21409978 56116 FO-118 1 54684U 22167C 23151.74986298 .00010269 00000-0 57289-3 0 9992 2 54684 97.5595 289.4472 0013857 36.9471 323.2712 15.13672846 26190 KILICSAT 1 56181U 23054D 23151.75018744 .00010189 00000-0 44497-3 0 9993 2 56181 97.4071 46.8777 0011828 93.4502 266.8088 15.22246989 7679 SSS-2B 1 56184U 23054G 23151.74644666 .00010715 00000-0 46568-3 0 9999 2 56184 97.4133 46.9210 0013197 93.5867 266.6879 15.22384312 7679 CIRBE 1 56188U 23054L 23151.60535033 .00013375 00000-0 57340-3 0 9990 2 56188 97.4085 46.7747 0012077 88.6773 271.5847 15.22804967 7650 INSPIRE-Sat 7 1 56211U 23054AK 23151.49567623 .00015435 00000-0 63041-3 0 9998 2 56211 97.4113 46.7853 0016882 74.4327 285.8773 15.24347690 7645 RoseyCubesat 1 1 56212U 23054AL 23151.68791269 .00016024 00000-0 65019-3 0 9997 2 56212 97.4119 46.9898 0017262 73.3102 287.0029 15.24552758 7679 ARKSAT 1 1 56311U 98067VC 23151.03433588 .00051533 00000-0 75552-3 0 9996 2 56311 51.6392 52.7760 0005922 47.0379 313.1108 15.55009528 5696 AuroraSat 1 56312U 98067VD 23151.16060912 .00063198 00000-0 91042-3 0 9990 2 56312 51.6390 52.1176 0005317 48.0086 312.1357 15.55404114 5745 Ex-Alta 2 1 56313U 98067VE 23151.29182667 .00053180 00000-0 77836-3 0 9992 2 56313 51.6387 51.4947 0005680 47.3962 312.7507 15.55042891 5752 LightCube 1 56314U 98067VF 23151.09848078 .00059826 00000-0 86582-3 0 9997 2 56314 51.6388 52.4515 0005269 25.7045 334.4207 15.55302486 5758 NEUDOSE 1 56315U 98067VG 23151.11412885 .00041754 00000-0 63946-3 0 9994 2 56315 51.6392 52.5563 0006528 26.2068 333.9252 15.53902106 5700 YukonSat 1 56316U 98067VH 23151.10872529 .00047251 00000-0 70908-3 0 9993 2 56316 51.6392 52.5204 0006056 25.8072 334.3220 15.54408296 5723